Satellite-Ground Cal/Val Site Overpasses Predictions

Prediction of Satellite NPP Overpassing Cal/Val Site: Antarctic Dome C

Ground Cal/Val Site Location: Latitude: -75.10, Longitude: 123.35; Satellite-Ground Site NADIR distance within 100 km.

Table of predicted overpasses for the next 14.0 days since TLE Epoch: 2/4/2023
Interval Starting Time Ending Time Minimum Distance Time Minimum Distance (km)
1 02/04/2023 15:02:51 02/04/2023 15:03:14 02/04/2023 15:03:02 60.83
2 02/05/2023 14:44:01 02/05/2023 14:44:26 02/05/2023 14:44:13 48.33
3 02/06/2023 07:45:42 02/06/2023 07:46:03 02/06/2023 07:45:53 67.42
4 02/07/2023 07:26:50 02/07/2023 07:27:16 02/07/2023 07:27:03 40.59
5 02/09/2023 15:09:18 02/09/2023 15:09:23 02/09/2023 15:09:20 98.33
6 02/10/2023 14:50:16 02/10/2023 14:50:46 02/10/2023 14:50:31 12.90
7 02/12/2023 07:33:06 02/12/2023 07:33:35 02/12/2023 07:33:21 4.60
8 02/15/2023 14:56:33 02/15/2023 14:57:02 02/15/2023 14:56:47 23.29
9 02/16/2023 14:37:51 02/16/2023 14:38:07 02/16/2023 14:37:59 83.79
